This is the latest recevied weather packets stored in our database for station/object VE9LJW. If no packets are shown the sender has not sent any weather packets the latest 10 day(s).
| Time | Temp. | Humidity | Pressure | Rain* | Wind** | Luminosity | Snow |
|---|---|---|---|---|---|---|---|
| 1777760848 | 14.44° C | 54% | 1011 hPa | 0 mm | - | 26 W/m² | - |
| 1777760544 | 14.44° C | 55% | 1011.1 hPa | 0 mm | - | 35 W/m² | - |
| 1777760240 | 14.44° C | 54% | 1010.8 hPa | 0 mm | - | 39 W/m² | - |
| 1777759937 | 14.44° C | 55% | 1011 hPa | 0 mm | - | 44 W/m² | - |
| 1777759633 | 14.44° C | 56% | 1010.7 hPa | 0 mm | - | 38 W/m² | - |
| 1777759329 | 14.44° C | 57% | 1010.8 hPa | 0 mm | - | 31 W/m² | - |
| 1777759027 | 14.44° C | 56% | 1010.6 hPa | 0 mm | - | 28 W/m² | - |
| 1777758723 | 14.44° C | 56% | 1010.8 hPa | 0 mm | - | 43 W/m² | - |
| 1777758421 | 14.44° C | 55% | 1010.7 hPa | 0 mm | - | 44 W/m² | - |
| 1777758118 | 14.44° C | 56% | 1010.7 hPa | 0 mm | - | 45 W/m² | - |
| 1777757815 | 14.44° C | 55% | 1010.8 hPa | 0 mm | - | 31 W/m² | - |
| 1777757512 | 14.44° C | 55% | 1010.7 hPa | 0 mm | - | 28 W/m² | - |
| 1777757211 | 14.44° C | 57% | 1010.8 hPa | 0 mm | - | 45 W/m² | - |
| 1777756909 | 14.44° C | 56% | 1010.7 hPa | 0 mm | - | 53 W/m² | - |
| 1777756604 | 14.44° C | 56% | 1010.8 hPa | 0 mm | - | 50 W/m² | - |
| 1777756301 | 14.44° C | 59% | 1010.6 hPa | 0 mm | - | 54 W/m² | - |
| 1777755999 | 14.44° C | 63% | 1010.7 hPa | 0 mm | - | 38 W/m² | - |
| 1777755696 | 14.44° C | 62% | 1010.7 hPa | 0 mm | - | 34 W/m² | - |
| 1777755392 | 15° C | 64% | 1010.4 hPa | 0 mm | - | 34 W/m² | - |
| 1777755089 | 14.44° C | 60% | 1010.3 hPa | 0 mm | - | 55 W/m² | - |
| 1777754786 | 15° C | 58% | 1010.5 hPa | 0 mm | - | 39 W/m² | - |
| 1777754478 | 15° C | 58% | 1010.7 hPa | 0 mm | - | 37 W/m² | - |
| 1777754175 | 15° C | 60% | 1010.4 hPa | 0 mm | - | 40 W/m² | - |
| 1777753873 | 15° C | 57% | 1010.5 hPa | 0 mm | - | 64 W/m² | - |
| 1777753568 | 15° C | 57% | 1010.3 hPa | 0 mm | - | 81 W/m² | - |
* Rain latest hour (hover to see other rain measurements)
** Current wind speed in m/s (hover to see current wind gust speed)